Overview Statistics Trail Chart Weather Telemetry Raw packets
 

This is the latest recevied weather packets stored in our database for station/object K2CAT. If no packets are shown the sender has not sent any weather packets the latest 10 day(s).

<< 76 77 78 79 80 81 82 >>
Time Temp. Humidity Pressure Rain* Wind** Luminosity Snow
1777157592 6.11° C 95% 1017.1 hPa 3.05 mm - 7 W/m² -
1777157289 6.11° C 95% 1017.2 hPa 3.05 mm - 6 W/m² -
1777156988 6.11° C 95% 1017.2 hPa 3.05 mm - 7 W/m² -
1777156683 6.67° C 95% 1017.2 hPa 3.05 mm - 8 W/m² -
1777156380 6.67° C 95% 1017.1 hPa 1.78 mm - 12 W/m² -
1777156076 6.11° C 95% 1017.1 hPa 3.05 mm - 8 W/m² -
1777155773 6.67° C 95% 1017.4 hPa 4.83 mm - 10 W/m² -
1777155468 6.67° C 94% 1017.1 hPa 3.05 mm - 10 W/m² -
1777155166 6.67° C 95% 1017.3 hPa 3.05 mm - 10 W/m² -
1777154862 6.67° C 94% 1017.2 hPa 1.78 mm - 8 W/m² -
1777154559 6.67° C 94% 1017.3 hPa 1.27 mm - 7 W/m² -
1777154255 6.67° C 94% 1017.1 hPa 1.27 mm - 10 W/m² -
1777153951 6.67° C 94% 1017.1 hPa 0 mm - 20 W/m² -
1777153647 6.67° C 93% 1016.9 hPa 1.78 mm - 35 W/m² -
1777153343 6.67° C 93% 1017 hPa 1.78 mm - 36 W/m² -
1777153040 6.67° C 93% 1017 hPa 1.27 mm - 35 W/m² -
1777152737 6.67° C 93% 1016.9 hPa 1.27 mm - 31 W/m² -
1777152434 6.67° C 93% 1016.9 hPa 0 mm - 33 W/m² -
1777152130 6.67° C 93% 1016.8 hPa 1.78 mm - 34 W/m² -
1777151830 6.67° C 93% 1016.8 hPa 1.78 mm - 40 W/m² -
1777151526 6.67° C 92% 1016.9 hPa 1.27 mm - 42 W/m² -
1777151222 6.67° C 92% 1017.1 hPa 1.27 mm - 43 W/m² -
1777150917 6.67° C 92% 1016.8 hPa 0 mm - 44 W/m² -
1777150612 6.67° C 92% 1017 hPa 0 mm - 64 W/m² -
1777150303 6.67° C 93% 1016.6 hPa 1.78 mm - 71 W/m² -

* Rain latest hour (hover to see other rain measurements)
** Current wind speed in m/s (hover to see current wind gust speed)